Simultaneous Nadir Overpasses (SNOs) Predictions

Prediction of SNOs between GOES-14 and NPP Satellite Orbit:

Table of predicted SNOs for the next 14.0 days since TLE Epoch: 7/16/2022
Index Date Time (GOES-14) GOES-14 Lat,Lon NPP Lat,Lon Distance(km) Time Diff (sec)
1 07/16/2022 20:40:04 0.30,-104.77 -0.64,-108.91 472.79 80
2 07/17/2022 20:24:00 0.28,-104.77 0.38,-104.39 43.76 80
3 07/20/2022 08:24:24 -0.30,-104.48 -0.13,-105.11 73.25 80
4 07/21/2022 08:08:21 -0.28,-104.47 -1.16,-100.59 442.86 80
5 07/22/2022 20:27:40 0.32,-104.76 0.06,-105.92 131.91 80
6 07/23/2022 20:11:35 0.30,-104.76 1.04,-101.38 384.64 80
7 07/25/2022 08:33:25 -0.34,-104.48 0.13,-106.66 247.89 80
8 07/26/2022 08:14:40 -0.33,-104.47 -0.85,-102.12 267.89 80
9 07/27/2022 20:33:59 0.36,-104.74 -0.24,-107.45 308.46 80
10 07/28/2022 20:17:55 0.35,-104.75 0.74,-102.92 208.20 80
